Location: Unspecified
(0.0000°N, 0.0000°E)
Time: 18:46:05
(UTC+00:00)

Explorer 11/Cluster Stage 4 - Pass Details

Date: 20 November 2019
Orbit: 467 x 1259 km, 28.8° (Epoch: 05 December)

Event Time Altitude Azimuth Distance (km) Brightness Sun altitude
Rises 03:05:33 0° 302° (WNW) 4,178 - -37.3°
Reaches altitude 10° 03:08:29 10° 302° (WNW) 3,227 - -36.6°
Maximum altitude 03:16:47 87° 30° (NNE) 1,222 - -34.7°
Exits shadow 03:17:21 79° 103° (ESE) 1,233 7.4 -34.6°
Drops below altitude 10° 03:24:24 10° 120° (ESE) 2,971 10.4 -33.0°
Sets 03:27:00 0° 120° (ESE) 3,834 11.2 -32.4°
